{"data":{"norad_id":61260,"epoch":"2026-09-21T18:56:08.323872Z","epoch_age_seconds":80718,"freshness":"FRESH","line1":"1 61260U 24175T   26264.78898523  .00000879  00000+0  37165-4 0  9993","line2":"2 61260  53.1589 359.8875 0001830  90.4406 269.6806 15.34393036111522","mean_motion":15.34393036,"eccentricity":0.000183,"inclination_deg":53.1589,"raan_deg":359.8875,"arg_perigee_deg":90.4406,"mean_anomaly_deg":269.6806,"bstar":3.7165e-5,"rev_number":11152,"period_min":93.848184019,"perigee_km":461.47206120919,"apogee_km":463.97581631278,"semimajor_km":6840.860938761,"source":"CELESTRAK","updated_at":"2026-09-22T09:00:49.351774Z"}}